Home   Weather   Nicosia   Past weeks

Flag for Cyprus Past Weather in Nicosia, Cyprus — Yesterday and Last 2 Weeks

64 °F


Feels Like: 64 °F
Forecast: 62 / 81 °F
Wind: 12 mph from West

Location: Ercan

Current Time: Oct 28, 2016 at 3:47:24 AM

Latest Report: Oct 28, 2016 at 2:50 AM

Visibility: 10 mi

Pressure: 29.98 "Hg

Humidity: 52%

Dew Point: 46 °F

Location of NicosiaLocation

Past Weather in Nicosia — Graph


Nicosia Temperature Yesterday

Maximum temperature yesterday: 82 °F (at 2:20 PM)
Minimum temperature yesterday: 54 °F (at 5:20 AM)
Average temperature yesterday: 68 °F

High & Low Weather Summary for the Past Weeks

High93 °F (Oct 13, 1:50 PM)88% (Oct 14, 2:20 AM)30.07 "Hg (Oct 14, 2:20 AM)
Low54 °F (Oct 27, 5:20 AM)15% (Oct 17, 2:20 PM)29.86 "Hg (Oct 18, 1:50 PM)
Average71 °F56%29.96 "Hg
* Reported Oct 13 2:20 AM — Oct 28 2:20 AM, Nicosia, Weather by CustomWeather, © 2016

Note: Actual official high and low records may vary slightly from our data, if they occured in-between our weather recording intervals... More about our weather records


Nicosia Weather History for the Previous 24 Hours

Scroll right to see more
Time TempWeatherWind HumidityBarometerVisibility
2:20 AM
Fri, Oct 28
63 °FClear.8 mph56%29.98 "Hg10 mi
1:50 AM63 °FClear.6 mph56%29.98 "Hg10 mi
1:20 AM64 °FClear.6 mph52%29.98 "Hg10 mi
12:50 AM64 °FPassing clouds.9 mph52%30.01 "HgN/A
12:20 AM64 °FClear.8 mph56%30.01 "Hg10 mi
11:50 PM
Thu, Oct 27
64 °FClear.8 mph56%30.01 "Hg10 mi
11:20 PM63 °FClear.7 mph56%30.01 "Hg10 mi
10:50 PM66 °FClear.5 mph49%30.01 "Hg10 mi
10:20 PM64 °FClear.7 mph52%30.01 "Hg10 mi
9:50 PM64 °FClear.7 mph52%29.98 "Hg10 mi
9:20 PM66 °FClear.No wind49%29.98 "Hg10 mi
8:50 PM70 °FClear.No wind40%29.98 "Hg10 mi
8:20 PM68 °FClear.6 mph49%29.98 "Hg10 mi
7:50 PM70 °FClear.6 mph50%29.98 "Hg10 mi
7:20 PM72 °FClear.6 mph50%29.98 "Hg10 mi
6:50 PM73 °FClear.6 mph50%29.98 "Hg10 mi
6:20 PM73 °FClear.7 mph44%29.98 "Hg10 mi
5:50 PM77 °FSunny.9 mph34%29.95 "Hg10 mi
5:20 PM79 °FPassing clouds.8 mph28%29.95 "HgN/A
4:50 PM81 °FPassing clouds.8 mph26%29.95 "HgN/A
4:20 PM81 °FPassing clouds.8 mph30%29.95 "HgN/A
3:50 PM82 °FPassing clouds.8 mph25%29.95 "HgN/A
3:20 PM82 °FPassing clouds.8 mph25%29.95 "HgN/A
2:50 PM82 °FPassing clouds.8 mph25%29.95 "HgN/A
2:20 PM82 °FSunny.10 mph26%29.95 "Hg10 mi
1:50 PM81 °FPassing clouds.8 mph28%29.95 "HgN/A
1:20 PM81 °FPassing clouds.8 mph26%29.98 "HgN/A
12:50 PM81 °FPassing clouds.10 mph26%29.98 "HgN/A
12:20 PM81 °FPassing clouds.7 mph28%29.98 "HgN/A
11:50 AM79 °FPassing clouds.10 mph28%30.01 "HgN/A
11:20 AM79 °FPassing clouds.9 mph32%30.01 "HgN/A
10:50 AM79 °FPassing clouds.5 mph34%30.01 "HgN/A
10:20 AM77 °FPassing clouds.7 mph39%30.01 "HgN/A
9:50 AM73 °FPassing clouds.9 mph36%30.01 "HgN/A
9:20 AM70 °FPassing clouds.9 mph35%30.01 "HgN/A
8:50 AM64 °FSunny.9 mph43%30.01 "Hg10 mi
8:20 AM61 °FSunny.7 mph48%29.98 "Hg10 mi
7:50 AM57 °FSunny.7 mph55%29.98 "Hg10 mi
7:20 AM55 °FSunny.9 mph55%29.98 "Hg10 mi
6:50 AM55 °FClear.8 mph55%29.95 "Hg10 mi
6:20 AM55 °FClear.8 mph59%29.95 "Hg10 mi
5:50 AM55 °FClear.9 mph55%29.95 "Hg10 mi
5:20 AM54 °FClear.6 mph58%29.95 "Hg10 mi
4:50 AM55 °FClear.7 mph59%29.95 "Hg10 mi
4:20 AM55 °FClear.7 mph59%29.95 "Hg10 mi
3:50 AM55 °FClear.No wind59%29.95 "Hg10 mi
3:20 AM55 °FClear.No wind59%29.95 "Hg10 mi
Weather by CustomWeather, © 2016

See weather overviewHow to use our weather pages